WA6GRA Weather Reports


time (UTC)temp
C
wind
direction
speed
KPH
gust
KPH
rain 1hr
cm
rain 24hr
cm
rain mn
cm
humidity
%
barometer
mb
20260506103438 11 329 0.0 1.6 0.00 0.00 0.00 86 1018.2
20260506102433 11 336 1.6 1.6 0.00 0.00 0.00 85 1017.9
20260506101431 11 353 0.0 1.6 0.00 0.00 0.00 85 1017.9
20260506100427 11 352 0.0 0.0 0.00 0.00 0.00 86 1017.6
20260506095423 11 1 0.0 0.0 0.00 0.00 0.00 87 1017.7
20260506094418 11 356 1.6 1.6 0.00 0.00 0.00 87 1017.5
20260506093419 11 351 0.0 0.0 0.00 0.00 0.00 87 1017.9
20260506092414 11 351 1.6 3.2 0.00 0.00 0.00 86 1017.7
20260506091414 11 350 1.6 1.6 0.00 0.00 0.00 85 1017.8
20260506090415 12 347 1.6 1.6 0.00 0.00 0.00 83 1017.9
20260506085414 12 352 3.2 3.2 0.00 0.00 0.00 81 1017.9
20260506084413 12 329 1.6 1.6 0.00 0.00 0.00 81 1018.1
20260506083413 12 331 3.2 3.2 0.00 0.00 0.00 83 1017.9
20260506082413 12 341 3.2 3.2 0.00 0.00 0.00 85 1017.8
20260506081413 12 347 0.0 0.0 0.00 0.00 0.00 85 1017.7
20260506080412 12 347 0.0 0.0 0.00 0.00 0.00 84 1017.9
20260506073402 12 349 0.0 0.0 0.00 0.00 0.00 83 1017.8
20260506072402 12 349 1.6 1.6 0.00 0.00 0.00 82 1017.6
20260506071358 13 348 1.6 1.6 0.00 0.00 0.00 81 1017.5
20260506070357 13 355 1.6 3.2 0.00 0.00 0.00 81 1017.4
20260506062340 13 355 1.6 1.6 0.00 0.00 0.00 79 1016.9
20260506061339 14 355 1.6 1.6 0.00 0.00 0.00 77 1016.9
20260506060335 15 349 3.2 3.2 0.00 0.00 0.00 75 1017.0
20260506051324 14 1 1.6 1.6 0.00 0.00 0.00 75 1016.2
20260506050319 15 353 3.2 3.2 0.00 0.00 0.00 75 1016.4
20260506044313 15 343 0.0 1.6 0.00 0.00 0.00 70 1016.1
20260506043313 16 337 1.6 3.2 0.00 0.00 0.00 68 1015.8
20260506042310 16 332 0.0 0.0 0.00 0.00 0.00 66 1015.7
20260506041311 16 332 1.6 1.6 0.00 0.00 0.00 65 1015.6
20260506040305 16 332 3.2 3.2 0.00 0.00 0.00 64 1015.4
20260506035306 16 324 1.6 1.6 0.00 0.00 0.00 64 1015.4
20260506034259 17 306 4.8 8.0 0.00 0.00 0.00 63 1015.4
20260506033259 17 325 3.2 3.2 0.00 0.00 0.00 62 1015.3
20260506032258 17 336 4.8 4.8 0.00 0.00 0.00 60 1015.2
20260506031258 17 325 4.8 4.8 0.00 0.00 0.00 60 1015.1
20260506030254 18 335 4.8 8.0 0.00 0.00 0.00 58 1014.9
20260506025253 18 349 6.4 8.0 0.00 0.00 0.00 57 1014.7
20260506024252 18 334 4.8 4.8 0.00 0.00 0.00 56 1014.7
20260506023251 18 353 3.2 3.2 0.00 0.00 0.00 55 1014.6
20260506022246 19 343 6.4 8.0 0.00 0.00 0.00 54 1014.3
20260506021246 20 309 3.2 3.2 0.00 0.00 0.00 52 1014.4
20260506020246 20 342 4.8 4.8 0.00 0.00 0.00 51 1014.3
20260506015247 19 336 3.2 4.8 0.00 0.00 0.00 52 1014.2
20260506014246 19 346 6.4 8.0 0.00 0.00 0.00 51 1014.4
20260506013246 19 338 4.8 4.8 0.00 0.00 0.00 51 1014.1
20260506012244 19 334 4.8 4.8 0.00 0.00 0.00 51 1014.0
20260506011244 20 352 8.0 11.3 0.00 0.00 0.00 49 1013.9
20260506010239 20 14 3.2 3.2 0.00 0.00 0.00 48 1013.8
20260506005239 19 21 1.6 1.6 0.00 0.00 0.00 50 1014.1
20260506004238 20 12 4.8 8.0 0.00 0.00 0.00 50 1014.2
20260506003237 20 9 3.2 3.2 0.00 0.00 0.00 49 1013.9
20260506002235 20 43 4.8 8.0 0.00 0.00 0.00 49 1014.0
20260506001235 20 351 6.4 9.7 0.00 0.00 0.00 48 1014.0
20260506000229 20 334 3.2 4.8 0.00 0.00 0.00 48 1014.0
20260505235229 20 8 3.2 8.0 0.00 0.00 0.00 47 1014.1
20260505234229 20 83 6.4 9.7 0.00 0.00 0.00 46 1014.1
20260505233230 21 299 3.2 3.2 0.00 0.00 0.00 45 1014.3
20260505232230 20 307 3.2 3.2 0.00 0.00 0.00 46 1014.4
20260505231225 20 40 3.2 3.2 0.00 0.00 0.00 48 1014.3
20260505230225 20 291 4.8 4.8 0.00 0.00 0.00 47 1014.4
20260505225225 20 273 4.8 4.8 0.00 0.00 0.00 45 1014.3
20260505224224 21 253 16.1 17.7 0.00 0.00 0.00 45 1014.5
20260505223223 21 289 8.0 11.3 0.00 0.00 0.00 46 1014.5
20260505222221 21 228 11.3 12.9 0.00 0.00 0.00 46 1014.5
20260505221221 20 166 8.0 9.7 0.00 0.00 0.00 48 1014.4
20260505220216 20 243 9.7 11.3 0.00 0.00 0.00 49 1014.5
20260505215211 20 266 12.9 16.1 0.00 0.00 0.00 48 1014.6
20260505214206 20 273 8.0 9.7 0.00 0.00 0.00 51 1014.6
20260505213200 20 180 8.0 9.7 0.00 0.00 0.00 51 1014.8
20260505212159 20 330 9.7 9.7 0.00 0.00 0.00 50 1014.7
20260505211159 20 270 11.3 14.5 0.00 0.00 0.00 52 1014.8
20260505210159 20 19 9.7 11.3 0.00 0.00 0.00 51 1014.7
20260505205154 19 252 8.0 11.3 0.00 0.00 0.00 54 1015.0
20260505204154 18 326 3.2 3.2 0.00 0.00 0.00 53 1014.8
20260505203154 18 28 1.6 1.6 0.00 0.00 0.00 58 1014.7
20260505202152 19 273 6.4 8.0 0.00 0.00 0.00 58 1015.0
20260505201152 19 274 3.2 4.8 0.00 0.00 0.00 58 1014.9
20260505200152 17 265 9.7 11.3 0.00 0.00 0.00 62 1015.0
20260505195152 17 276 12.9 12.9 0.00 0.00 0.00 62 1015.0
20260505194151 17 348 9.7 11.3 0.00 0.00 0.00 63 1015.2
20260505193150 17 322 9.7 11.3 0.00 0.00 0.00 65 1015.3
20260505192146 16 309 4.8 4.8 0.00 0.00 0.00 69 1015.4
20260505191142 16 297 9.7 12.9 0.00 0.00 0.00 68 1015.3
20260505190138 16 293 8.0 11.3 0.00 0.00 0.00 68 1015.4
20260505185137 15 335 8.0 11.3 0.00 0.00 0.00 70 1015.6
20260505184136 15 310 6.4 8.0 0.00 0.00 0.00 71 1015.5
20260505183131 15 318 8.0 11.3 0.00 0.00 0.00 71 1015.5
20260505182129 16 308 9.7 12.9 0.00 0.00 0.00 69 1015.4
20260505181129 15 305 8.0 12.9 0.00 0.00 0.00 70 1015.4
20260505180129 15 316 6.4 8.0 0.00 0.00 0.00 73 1015.2
20260505175127 15 326 6.4 9.7 0.00 0.00 0.00 73 1015.2
20260505174126 15 340 8.0 11.3 0.00 0.00 0.00 74 1015.3
20260505173125 15 329 6.4 9.7 0.00 0.00 0.00 75 1014.9
20260505172120 15 312 6.4 9.7 0.00 0.00 0.00 77 1015.1
20260505171118 13 310 8.0 11.3 0.00 0.00 0.00 80 1014.9
20260505170117 13 338 9.7 12.9 0.00 0.00 0.00 83 1015.1
20260505165114 13 291 4.8 4.8 0.00 0.00 0.00 85 1014.9
20260505164113 13 295 4.8 4.8 0.00 0.00 0.00 86 1014.9
20260505163108 12 285 8.0 9.7 0.00 0.00 0.00 85 1015.0
20260505162103 12 294 1.6 3.2 0.00 0.00 0.00 86 1014.9
20260505161103 12 308 4.8 8.0 0.00 0.00 0.00 87 1014.8
20260505160104 12 328 3.2 3.2 0.00 0.00 0.00 87 1014.6
20260505153100 12 317 8.0 9.7 0.00 0.00 0.00 88 1014.6
20260505152058 12 286 6.4 9.7 0.00 0.00 0.00 89 1014.5
20260505151057 12 308 4.8 4.8 0.00 0.00 0.00 89 1014.5
20260505125036 12 277 12.9 14.5 0.00 0.00 0.00 87 1013.2
20260505124034 12 321 3.2 3.2 0.00 0.00 0.00 88 1013.3
20260505123032 12 320 6.4 8.0 0.00 0.00 0.00 88 1013.4
20260505122032 12 331 4.8 8.0 0.00 0.00 0.00 88 1013.4
20260505121031 12 301 9.7 12.9 0.00 0.00 0.00 87 1013.1
20260505120029 12 326 9.7 12.9 0.00 0.00 0.00 87 1013.2
20260505115028 12 310 3.2 3.2 0.00 0.00 0.00 86 1013.2
20260505114027 12 323 3.2 3.2 0.00 0.00 0.00 86 1013.1
20260505113026 12 326 1.6 1.6 0.00 0.00 0.00 85 1013.4
20260505112020 12 326 1.6 1.6 0.00 0.00 0.00 85 1013.1
20260505111016 12 326 3.2 3.2 0.00 0.00 0.00 85 1013.0